Погода в Лондоне

Канада     42°59′20″N   81°13′53″W
темп.,
°C
ветер,
м/с
пор.,
м/с
влажн.,
%
обл.,
%
осадки,
мм/ч
давл.,
гПа
погр.,
м
8 мая, сб
сб823:00+5зсз1291100 0.3 101365
02:00+4сз4596100 1.3 1013623
05:00+3сз3697100 3.8 1013559
08:00+2ссз6991100 4.1 1015679
11:00+3сз5897100 0.3 1017496
14:00+6сз667599 0.4 10171013
17:00+8зсз66618 0.0 10171205
20:00+6сз35732 0.0 1018131
9 мая, вс
вс923:00+3зсз2281100 0.0 101912
02:00+2юз1176100 0.0 101910
05:00+2юв1176100 0.0 101810
08:00+5юв3677100 0.0 1017202
11:00+8ююв5569100 0.1 10141126
14:00+7ююв5579100 0.6 1013776
17:00+7вюв5774100 0.4 1010933
20:00+6всв3689100 1.9 1011419
10 мая, пн
пн1023:00+5ссз369574 0.1 1011149
02:00+4ссз489590 0.1 1012230
05:00+2сз49873 0.0 1014198
08:00+4сз5108819 0.0 1016416
11:00+7сз677477 0.0 10161062
14:00+9сз686186 0.2 10171626
17:00+9зсз695548 0.1 10171722
20:00+5ссз58755 0.1 1019418
11 мая, вт
вт1123:00+2сз49915 0.0 1020251
02:00+1сз39957 0.0 1021236
05:00+1сз410949 0.0 1021405
08:00+3зсз698047 0.0 1023727
11:00+4сз81076100 0.1 10241136
14:00+5сз9126380 0.3 10251503
17:00+7сз914545 0.0 10241596
20:00+4сз6127029 0.0 1026629
12 мая, ср
ср1223:00+2сз514835 0.0 1028362
02:00+2сз411880 0.0 1028256
05:00+1сз410940 0.0 1030183
08:00+5ссз59820 0.0 1032268
11:00+11ссз55590 0.0 1031866
14:00+13зсз53525 0.0 10311544
17:00+13сз44552 0.0 10301063
20:00+9сз34710 0.0 103065